Burns, OR

1:54 AM PDT on May 28, 2017 (GMT -0700)
Burns Municipal

Weather History for KBNO - December, 2013

Change the Weather History Date:

Friday, December 6, 2013

  Actual Average Record
Temperature  
Mean Temperature 11 °F 26 °F  
Max Temperature 18 °F 36 °F 55 °F (1962)
Min Temperature 3 °F 15 °F -4 °F (1992)
Degree Days  
Heating Degree Days 54 40  
Month to date heating degree days 269 233  
Since 1 July heating degree days 2192 2234  
Cooling Degree Days 0 0  
Month to date cooling degree days 0 0  
Year to date cooling degree days 372 215  
Moisture  
Dew Point 11 °F    
Average Humidity 82    
Maximum Humidity 96    
Minimum Humidity 67    
Precipitation  
Precipitation 0.16 in 0.05 in 0.51 in (1950)
Month to date precipitation 0.17 0.30  
Year to date precipitation 6.86 9.67  
Sea Level Pressure  
Sea Level Pressure 29.88 in    
Wind  
Wind Speed 10 mph (NNE)    
Max Wind Speed 23 mph    
Max Gust Speed 27 mph    
Visibility 4 miles    
Events Snow    
T = Trace of Precipitation, MM = Missing Value Source: NWS Daily Summary

Daily Weather History Graph

Daily Weather History Graph

Search for Another Location

Airport or City:

Trip Planner

Search our weather history database for the weather conditions in past years. The results will help you decide how hot, cold, wet, or windy it might be!

Date:

Astronomy

Dec. 06, 2013 Rise Set
Actual Time 7:14 AM PST 4:19 PM PST
Civil Twilight 6:42 AM PST 4:51 PM PST
Nautical Twilight 6:06 AM PST 5:27 PM PST
Astronomical Twilight 5:31 AM PST 6:02 PM PST
Moon 10:19 AM PST (12/6) 9:02 PM PST (12/6)
Length of Visible Light 10h 09m
Length of Day
9h 04m
Waxing Crescent, 20% of the Moon is Illuminated
Dec 6
Waxing Crescent
Dec 9
First Quarter
Dec 17
Full
Dec 25
Last Quarter
Jan 1
New

Hourly Weather History & Observations

Time (PST) Temp. Windchill Dew Point Humidity Pressure Visibility Wind Dir Wind Speed Gust Speed Precip Events Conditions
12:53 AM 8.1 °F -3.2 °F 3.9 °F 83% 30.14 in 10.0 mi West 6.9 mph - N/A   Overcast
1:53 AM 10.0 °F 3.6 °F 6.1 °F 84% 30.13 in 10.0 mi North 3.5 mph - N/A   Overcast
2:53 AM 10.9 °F - 5.0 °F 77% 30.12 in 10.0 mi Calm Calm - N/A   Overcast
3:53 AM 12.0 °F - 6.1 °F 77% 30.12 in 9.0 mi Calm Calm - N/A   Overcast
4:53 AM 12.0 °F - 9.0 °F 88% 30.12 in 3.0 mi Calm Calm - 0.00 in Snow Light Snow
5:06 AM 12.0 °F - 9.0 °F 88% 29.96 in 2.5 mi Calm Calm - 0.00 in Snow Light Snow
5:20 AM 10.9 °F - 8.1 °F 88% 29.96 in 3.0 mi Calm Calm - 0.00 in Snow Light Snow
5:53 AM 10.9 °F - 8.1 °F 88% 30.14 in 7.0 mi Calm Calm - 0.00 in   Overcast
6:53 AM 6.1 °F -4.3 °F 3.0 °F 87% 30.15 in 10.0 mi NNE 5.8 mph - N/A   Mostly Cloudy
7:53 AM 5.0 °F - 3.0 °F 92% 30.17 in 10.0 mi Calm Calm - N/A   Scattered Clouds
8:53 AM 14.0 °F 1.2 °F 7.0 °F 74% 30.13 in 10.0 mi NE 10.4 mph - N/A   Clear
9:28 AM 16.0 °F 4.4 °F 8.1 °F 71% 29.97 in 10.0 mi ENE 9.2 mph - N/A   Mostly Cloudy
9:43 AM 17.1 °F 5.0 °F 8.1 °F 68% 29.96 in 10.0 mi NE 10.4 mph - N/A   Scattered Clouds
9:53 AM 16.0 °F 3.6 °F 8.1 °F 71% 30.13 in 10.0 mi ENE 10.4 mph - N/A   Partly Cloudy
10:53 AM 17.1 °F 3.6 °F 9.0 °F 71% 30.10 in 10.0 mi ENE 12.7 mph - N/A   Overcast
11:53 AM 18.0 °F 4.8 °F 9.0 °F 68% 30.07 in 10.0 mi NE 12.7 mph - N/A   Overcast
12:53 PM 18.0 °F 4.8 °F 9.0 °F 68% 30.04 in 10.0 mi NE 12.7 mph - N/A   Overcast
1:29 PM 18.0 °F 4.8 °F 10.0 °F 71% 29.86 in 2.5 mi NE 12.7 mph - 0.00 in Snow Light Snow
1:53 PM 18.0 °F 3.6 °F 10.9 °F 74% 30.00 in 2.0 mi NE 15.0 mph - 0.00 in Snow Light Snow
2:02 PM 18.0 °F 3.6 °F 12.0 °F 78% 29.84 in 1.8 mi NE 15.0 mph - 0.01 in Snow Light Snow
2:26 PM 18.0 °F 2.6 °F 12.0 °F 78% 29.81 in 2.5 mi NE 17.3 mph - 0.01 in Snow Light Snow
2:44 PM 18.0 °F 3.6 °F 12.9 °F 81% 29.81 in 2.5 mi NE 15.0 mph - 0.01 in Snow Light Snow
2:53 PM 18.0 °F 3.1 °F 12.9 °F 81% 29.95 in 4.0 mi NE 16.1 mph 24.2 mph 0.01 in Snow Light Snow
3:06 PM 18.0 °F 3.1 °F 12.9 °F 81% 29.80 in 5.0 mi NE 16.1 mph - 0.00 in Snow Light Snow
3:13 PM 17.1 °F 0.6 °F 12.9 °F 84% 29.80 in 1.5 mi NE 19.6 mph - 0.00 in Snow Light Snow
3:21 PM 17.1 °F 2.0 °F 12.9 °F 84% 29.80 in 0.8 mi NE 16.1 mph - 0.00 in Snow Light Snow
3:30 PM 17.1 °F 2.5 °F 12.9 °F 84% 29.80 in 1.0 mi NE 15.0 mph 21.9 mph 0.00 in Snow Light Snow
3:48 PM 17.6 °F 5.0 °F 12.2 °F 79% 29.79 in 0.8 mi NE 11.5 mph - 0.01 in Snow Light Snow
3:53 PM 17.1 °F 3.0 °F 12.9 °F 84% 29.93 in 0.8 mi NE 13.8 mph - 0.01 in Snow Light Snow
4:32 PM 16.0 °F -0.4 °F 12.9 °F 88% 29.78 in 1.0 mi NE 18.4 mph 23.0 mph 0.02 in Snow Light Snow
4:44 PM 16.0 °F 0.1 °F 12.9 °F 88% 29.78 in 0.8 mi NE 17.3 mph - 0.02 in Snow Light Snow
4:53 PM 15.1 °F -0.6 °F 12.9 °F 91% 29.92 in 0.8 mi NE 16.1 mph - 0.03 in Snow Light Snow
5:20 PM 15.1 °F -1.6 °F 12.0 °F 88% 29.77 in 1.0 mi NE 18.4 mph - 0.02 in Snow Light Snow
5:30 PM 15.1 °F -1.1 °F 12.0 °F 88% 29.76 in 1.0 mi NE 17.3 mph 26.5 mph 0.02 in Snow Light Snow
5:48 PM 15.8 °F -0.2 °F 12.2 °F 86% 29.75 in 1.8 mi NNE 17.3 mph - 0.03 in Snow Light Snow
5:53 PM 15.1 °F -1.6 °F 12.0 °F 88% 29.91 in 1.8 mi NE 18.4 mph 26.5 mph 0.03 in Snow Light Snow
6:03 PM 15.1 °F -1.6 °F 10.9 °F 84% 29.75 in 1.5 mi NNE 18.4 mph - 0.00 in Snow Light Snow
6:24 PM 15.1 °F -2.0 °F 10.9 °F 84% 29.74 in 2.5 mi NE 19.6 mph - 0.01 in Snow Light Snow
6:43 PM 15.1 °F -1.1 °F 12.0 °F 88% 29.75 in 1.5 mi NE 17.3 mph - 0.01 in Snow Light Snow
6:48 PM 15.8 °F 0.3 °F 12.2 °F 86% 29.75 in 1.2 mi NE 16.1 mph 24.2 mph 0.01 in Snow Light Snow
6:53 PM 15.1 °F -1.6 °F 12.0 °F 88% 29.91 in 1.2 mi NE 18.4 mph - 0.01 in Snow Light Snow
7:06 PM 15.1 °F -0.6 °F 12.0 °F 88% 29.74 in 1.2 mi NNE 16.1 mph - 0.01 in Snow Light Snow
7:14 PM 15.1 °F -0.1 °F 12.0 °F 88% 29.74 in 1.8 mi NNE 15.0 mph 21.9 mph 0.01 in Snow Light Snow
7:25 PM 15.1 °F -0.6 °F 12.0 °F 88% 29.73 in 1.0 mi NE 16.1 mph - 0.02 in Snow Light Snow
7:36 PM 15.1 °F -1.1 °F 12.0 °F 88% 29.73 in 1.2 mi NNE 17.3 mph 23.0 mph 0.02 in Snow Light Snow
7:53 PM 15.1 °F -0.6 °F 12.0 °F 88% 29.90 in 1.2 mi NNE 16.1 mph - 0.03 in Snow Light Snow
8:01 PM 15.1 °F -0.6 °F 12.0 °F 88% 29.72 in 2.0 mi NNE 16.1 mph - 0.00 in Snow Light Snow
8:13 PM 16.0 °F 0.6 °F 12.0 °F 84% 29.71 in 3.0 mi NNE 16.1 mph - 0.00 in Snow Light Snow
8:53 PM 16.0 °F 0.6 °F 10.9 °F 81% 29.86 in 3.0 mi NNE 16.1 mph - 0.01 in Snow Light Snow
9:24 PM 16.0 °F 1.7 °F 12.0 °F 84% 29.71 in 2.0 mi NNE 13.8 mph - 0.00 in Snow Light Snow
9:34 PM 16.0 °F 1.1 °F 12.0 °F 84% 29.71 in 1.5 mi NNE 15.0 mph - 0.00 in Snow Light Snow
9:53 PM 16.0 °F 2.3 °F 12.9 °F 88% 29.84 in 1.5 mi NNE 12.7 mph - 0.01 in Snow Light Snow
10:03 PM 16.0 °F 5.3 °F 12.9 °F 88% 29.71 in 1.2 mi North 8.1 mph - 0.00 in Snow Light Snow
10:10 PM 16.0 °F 4.4 °F 12.9 °F 88% 29.70 in 1.5 mi North 9.2 mph - 0.00 in Snow Light Snow
10:30 PM 16.0 °F 5.3 °F 12.0 °F 84% 29.71 in 2.0 mi North 8.1 mph - 0.01 in Snow Light Snow
10:40 PM 16.0 °F 6.3 °F 12.0 °F 84% 29.72 in 1.8 mi NNW 6.9 mph - 0.01 in Snow Light Snow
10:51 PM 15.8 °F 5.1 °F 12.2 °F 86% 29.71 in 2.0 mi NNW 8.1 mph - 0.01 in Snow Light Snow
10:53 PM 16.0 °F 6.3 °F 12.0 °F 84% 29.84 in 1.8 mi NNW 6.9 mph - 0.01 in Snow Light Snow
11:31 PM 15.1 °F 9.4 °F 12.9 °F 91% 29.71 in 2.5 mi WNW 3.5 mph - 0.01 in Snow Light Snow
11:36 PM 15.1 °F 9.4 °F 12.9 °F 91% 29.71 in 3.0 mi WNW 3.5 mph - 0.01 in Snow Light Snow
11:51 PM 15.8 °F 10.2 °F 12.2 °F 86% 29.70 in 2.5 mi WNW 3.5 mph - 0.01 in Snow Light Snow
11:53 PM 15.1 °F 9.4 °F 12.9 °F 91% 29.83 in 2.5 mi WNW 3.5 mph - 0.01 in Snow Light Snow